Location: Omaha
(41.2590°N, 95.9380°W)
Time: 11:50:36
(UTC-06:00)

Tiangong 2 - Pass Details

Date: 15 October 2017
Orbit: 386 x 390 km, 42.8° (Epoch: 17 December)

Event Time Altitude Azimuth Distance (km) Brightness Sun altitude
Exits shadow 06:07:41 49° 308° (NW) 508 1.3 -17.3°
Maximum altitude 06:08:19 65° 4° (N) 434 1.2 -17.2°
Drops below altitude 10° 06:11:30 10° 86° (E) 1,423 5.3 -16.6°
Sets 06:13:36 0° 90° (E) 2,280 6.8 -16.2°
